Location: Burla
(50.9568°N, 10.4983°E)
Time: 17:38:51
(UTC+00:00)

Cosmos 921 Rocket - Pass Details

Date: 18 January 2026
Orbit: 564 x 620 km, 75.8° (Epoch: 16 February)

Event Time Altitude Azimuth Distance (km) Brightness Sun altitude
Exits shadow 05:21:46 32° 263° (W) 1,022 3.6 -16.8°
Maximum altitude 05:22:55 38° 299° (WNW) 898 3.4 -16.6°
Drops below altitude 10° 05:26:52 10° 8° (N) 1,898 5.5 -16.0°
Sets 05:29:12 0° 17° (NNE) 2,793 6.5 -15.7°
